Weather in Lodz

1409 UTC 22 February 2018 EPLL 221400Z 03010KT 9999 BKN029 M03/M10 Q1023

Where pilots are born

  • Daniel from Ireland

    I just wanted to say thank you very much for all your help. Throughout all the training I have done, I have not had a more...

  • Jeremie from Belgium

    "Bartolini Air est une super ecole : les instructeurs et les dirigeants sont a la disposition des eleve-pilotes non...

  • Ismail

    Best school, friendly staff, amazing instructors. Cheers,

22000+

Operations per year

1500+

Number of trained pilots

55+

Nationality students

How to join the training?